Location: ??????
(56.0120°N, 39.1740°E)
Time: 02:26:35
(UTC+00:00)

SJ 16-02 - Pass Details

Date: 14 April 2026
Orbit: 582 x 592 km, 75.0° (Epoch: 20 May)

Event Time Altitude Azimuth Distance (km) Brightness Sun altitude
Rises 18:58:41 0° 337° (NNW) 2,835 6.3 -17.8°
Reaches altitude 10° 19:01:35 10° 357° (N) 1,928 4.7 -18.1°
Maximum altitude 19:04:29 17° 40° (NE) 1,497 3.5 -18.3°
Enters shadow 19:06:50 12° 77° (ENE) 1,783 3.5 -18.5°
